Simultaneous Nadir Overpasses (SNOs) Predictions

Prediction of SNOs between GOES-17 and METOP-A Satellite Orbit:

Table of predicted SNOs for the next 14.0 days since TLE Epoch: 5/4/2019
Index Date Time (GOES-17) GOES-17 Lat,Lon METOP-A Lat,Lon Distance(km) Time Diff (sec)
1 05/04/2019 06:31:54 0.02,-137.18 -0.75,-140.65 395.74 80
2 05/05/2019 06:08:32 0.01,-137.18 0.37,-135.66 173.62 80
3 05/06/2019 18:27:18 -0.01,-137.21 0.68,-140.21 342.46 80
4 05/07/2019 18:09:15 -0.01,-137.21 -0.43,-135.22 226.66 80
5 05/09/2019 06:28:11 0.00,-137.16 -0.60,-139.81 302.27 80
6 05/10/2019 06:04:48 -0.00,-137.15 0.52,-134.82 265.97 80
7 05/11/2019 18:23:36 0.00,-137.17 0.47,-139.39 252.08 80
8 05/12/2019 18:05:32 0.01,-137.16 -0.59,-134.38 316.15 80
9 05/14/2019 06:24:27 -0.01,-137.11 -0.44,-138.98 213.49 80
10 05/15/2019 06:01:05 -0.01,-137.09 0.68,-133.98 354.21 80
11 05/16/2019 18:19:52 0.01,-137.10 0.31,-138.55 164.90 80
12 05/17/2019 18:01:49 0.01,-137.08 -0.75,-133.54 402.86 80




NCC Satellite Simultaneous Nadir Overpasses (SNOs) Prediction Service
